| time (UTC) | temp F | wind direction | speed MPH | gust MPH | rain 1hr in | rain 24hr in | rain mn in | humidity % | barometer mb |
| 20260504191352 | 84 | 23 | 2.0 | 7.0 | 0.00 | 0.00 | 0.00 | 65 | 1012.4 |
| 20260504190333 | 86 | 68 | 4.0 | 9.0 | 0.00 | 0.00 | 0.00 | 65 | 1012.6 |
| 20260504185343 | 85 | 53 | 2.0 | 7.0 | 0.00 | 0.00 | 0.00 | 67 | 1012.6 |
| 20260504184327 | 83 | 7 | 6.0 | 13.0 | 0.00 | 0.00 | 0.00 | 69 | 1012.8 |
| 20260504183356 | 84 | 58 | 5.0 | 11.0 | 0.00 | 0.00 | 0.00 | 68 | 1013.0 |
| 20260504182327 | 83 | 44 | 6.0 | 14.0 | 0.00 | 0.00 | 0.00 | 68 | 1013.1 |
| 20260504181339 | 82 | 34 | 6.0 | 13.0 | 0.00 | 0.00 | 0.00 | 68 | 1013.2 |
| 20260504180350 | 84 | 153 | 3.0 | 11.0 | 0.00 | 0.00 | 0.00 | 65 | 1013.3 |
| 20260504175333 | 82 | 148 | 3.0 | 14.0 | 0.00 | 0.00 | 0.00 | 70 | 1013.4 |
| 20260504174327 | 83 | 51 | 7.0 | 12.0 | 0.00 | 0.00 | 0.00 | 66 | 1013.5 |
| 20260504173339 | 82 | 77 | 7.0 | 15.0 | 0.00 | 0.00 | 0.00 | 67 | 1013.7 |
| 20260504172333 | 83 | 23 | 6.0 | 12.0 | 0.00 | 0.00 | 0.00 | 65 | 1013.8 |
| 20260504171325 | 82 | 337 | 4.0 | 10.0 | 0.00 | 0.00 | 0.00 | 67 | 1014.0 |
| 20260504170340 | 81 | 23 | 7.0 | 13.0 | 0.00 | 0.00 | 0.00 | 68 | 1014.2 |
| 20260504160343 | 82 | 20 | 4.0 | 9.0 | 0.00 | 0.00 | 0.00 | 67 | 1014.6 |
| 20260504150329 | 78 | 13 | 5.0 | 14.0 | 0.00 | 0.00 | 0.00 | 72 | 1014.9 |
| 20260504140330 | 76 | 35 | 5.0 | 13.0 | 0.00 | 0.01 | 0.00 | 80 | 1014.6 |
| 20260504130340 | 70 | 30 | 5.0 | 9.0 | 0.00 | 0.01 | 0.00 | 89 | 1014.4 |
| 20260504110329 | 66 | 349 | 3.0 | 6.0 | 0.00 | 0.01 | 0.00 | 95 | 1013.4 |
| 20260504100347 | 64 | 360 | 2.0 | 6.0 | 0.00 | 0.01 | 0.00 | 97 | 1012.9 |
| 20260504081338 | 65 | 347 | 1.0 | 3.0 | 0.00 | 0.01 | 0.00 | 98 | 1013.2 |
| 20260504080332 | 65 | 317 | 1.0 | 3.0 | 0.00 | 0.01 | 0.00 | 98 | 1013.4 |
| 20260504070330 | 66 | 307 | 0.0 | 0.0 | 0.00 | 0.01 | 0.00 | 97 | 1013.1 |
| 20260504050328 | 69 | 21 | 1.0 | 5.0 | 0.00 | 0.01 | 0.00 | 93 | 1014.4 |
| 20260504045334 | 69 | 336 | 1.0 | 4.0 | 0.00 | 0.01 | 0.00 | 94 | 1014.7 |
| 20260504044328 | 69 | 345 | 1.0 | 3.0 | 0.00 | 0.01 | 0.00 | 94 | 1014.5 |
| 20260504043341 | 69 | 342 | 1.0 | 3.0 | 0.00 | 0.01 | 0.00 | 94 | 1014.4 |
| 20260504042352 | 69 | 8 | 1.0 | 3.0 | 0.00 | 0.01 | 0.00 | 94 | 1014.4 |
| 20260504041335 | 69 | 8 | 1.0 | 3.0 | 0.00 | 0.01 | 0.00 | 94 | 1014.4 |
| 20260504040348 | 69 | 18 | 0.0 | 2.0 | 0.00 | 0.01 | 0.00 | 95 | 1014.7 |
| 20260504035341 | 69 | 23 | 1.0 | 3.0 | 0.00 | 0.01 | 0.01 | 94 | 1014.8 |
| 20260504034348 | 69 | 23 | 1.0 | 2.0 | 0.00 | 0.01 | 0.01 | 95 | 1014.9 |
| 20260504033329 | 69 | 27 | 1.0 | 3.0 | 0.00 | 0.01 | 0.01 | 96 | 1014.9 |
| 20260504032342 | 69 | 48 | 0.0 | 0.0 | 0.00 | 0.01 | 0.01 | 96 | 1015.0 |
| 20260504031329 | 69 | 48 | 0.0 | 1.0 | 0.00 | 0.01 | 0.01 | 96 | 1014.8 |
| 20260504030344 | 69 | 48 | 0.0 | 1.0 | 0.00 | 0.01 | 0.01 | 96 | 1014.9 |
| 20260504025352 | 69 | 48 | 0.0 | 1.0 | 0.00 | 0.02 | 0.01 | 96 | 1014.9 |
| 20260504024336 | 69 | 47 | 0.0 | 0.0 | 0.00 | 0.02 | 0.01 | 96 | 1014.9 |
| 20260504023351 | 69 | 47 | 0.0 | 0.0 | 0.00 | 0.02 | 0.01 | 96 | 1014.9 |
| 20260504022358 | 69 | 48 | 0.0 | 0.0 | 0.00 | 0.02 | 0.01 | 95 | 1014.9 |
| 20260504021331 | 69 | 48 | 0.0 | 0.0 | 0.00 | 0.02 | 0.01 | 95 | 1014.8 |
| 20260504020344 | 69 | 48 | 0.0 | 0.0 | 0.00 | 0.02 | 0.01 | 94 | 1014.6 |
| 20260504015328 | 70 | 48 | 0.0 | 0.0 | 0.00 | 0.02 | 0.01 | 93 | 1014.5 |
| 20260504014339 | 70 | 48 | 0.0 | 0.0 | 0.00 | 0.02 | 0.01 | 92 | 1014.4 |
| 20260504013353 | 70 | 47 | 0.0 | 1.0 | 0.00 | 0.02 | 0.01 | 92 | 1014.4 |
| 20260504012337 | 71 | 47 | 0.0 | 1.0 | 0.00 | 0.02 | 0.01 | 92 | 1014.3 |
| 20260504011347 | 71 | 47 | 0.0 | 0.0 | 0.00 | 0.02 | 0.01 | 91 | 1014.2 |
| 20260504010331 | 71 | 47 | 0.0 | 1.0 | 0.00 | 0.02 | 0.01 | 91 | 1014.1 |
| 20260504005344 | 71 | 47 | 0.0 | 2.0 | 0.00 | 0.04 | 0.01 | 91 | 1013.9 |
| 20260504004357 | 71 | 64 | 0.0 | 2.0 | 0.00 | 0.04 | 0.01 | 91 | 1013.8 |
| 20260504003329 | 71 | 105 | 0.0 | 1.0 | 0.00 | 0.04 | 0.01 | 91 | 1013.8 |
| 20260504002339 | 71 | 105 | 0.0 | 1.0 | 0.00 | 0.04 | 0.01 | 90 | 1013.6 |
| 20260504001352 | 72 | 106 | 0.0 | 1.0 | 0.00 | 0.04 | 0.01 | 90 | 1013.5 |
| 20260504000335 | 72 | 88 | 0.0 | 1.0 | 0.00 | 0.04 | 0.01 | 90 | 1013.5 |
| 20260503235349 | 72 | 93 | 0.0 | 1.0 | 0.00 | 0.04 | 0.01 | 89 | 1013.5 |
| 20260503234332 | 73 | 103 | 0.0 | 1.0 | 0.00 | 0.04 | 0.01 | 88 | 1013.5 |
| 20260503233347 | 73 | 98 | 0.0 | 2.0 | 0.00 | 0.04 | 0.01 | 87 | 1013.5 |
| 20260503232330 | 73 | 100 | 1.0 | 4.0 | 0.00 | 0.04 | 0.01 | 87 | 1013.4 |
| 20260503231326 | 73 | 104 | 0.0 | 1.0 | 0.00 | 0.04 | 0.01 | 86 | 1013.3 |
| 20260503230355 | 73 | 96 | 0.0 | 5.0 | 0.00 | 0.04 | 0.01 | 86 | 1013.3 |
| 20260503225329 | 73 | 98 | 0.0 | 6.0 | 0.00 | 0.39 | 0.01 | 86 | 1013.2 |
| 20260503224342 | 73 | 25 | 3.0 | 6.0 | 0.00 | 0.39 | 0.01 | 86 | 1013.3 |
| 20260503223334 | 73 | 30 | 3.0 | 5.0 | 0.00 | 0.39 | 0.01 | 86 | 1013.2 |
| 20260503222348 | 73 | 62 | 3.0 | 8.0 | 0.00 | 0.39 | 0.01 | 86 | 1013.2 |
| 20260503221332 | 74 | 23 | 4.0 | 6.0 | 0.00 | 0.39 | 0.01 | 86 | 1013.2 |
| 20260503220342 | 74 | 70 | 1.0 | 11.0 | 0.00 | 0.39 | 0.01 | 86 | 1013.2 |
| 20260503215335 | 74 | 41 | 3.0 | 7.0 | 0.00 | 0.70 | 0.01 | 86 | 1013.3 |
| 20260503214408 | 74 | 102 | 3.0 | 6.0 | 0.00 | 0.70 | 0.01 | 86 | 1013.3 |
| 20260503213332 | 73 | 44 | 2.0 | 6.0 | 0.00 | 0.70 | 0.01 | 86 | 1013.4 |
| 20260503212343 | 74 | 77 | 3.0 | 6.0 | 0.00 | 0.70 | 0.01 | 86 | 1013.4 |
| 20260503211338 | 74 | 17 | 4.0 | 8.0 | 0.00 | 0.70 | 0.01 | 85 | 1013.4 |
| 20260503210349 | 74 | 20 | 2.0 | 7.0 | 0.00 | 0.70 | 0.01 | 86 | 1013.5 |
| 20260503205340 | 74 | 44 | 5.0 | 8.0 | 0.00 | 0.70 | 0.01 | 85 | 1013.6 |
| 20260503204325 | 74 | 41 | 2.0 | 11.0 | 0.00 | 0.70 | 0.01 | 86 | 1013.5 |
| 20260503203337 | 74 | 12 | 4.0 | 7.0 | 0.00 | 0.70 | 0.01 | 86 | 1013.5 |
| 20260503202408 | 74 | 37 | 3.0 | 12.0 | 0.00 | 0.70 | 0.01 | 86 | 1013.7 |
| 20260503201330 | 74 | 43 | 4.0 | 9.0 | 0.00 | 0.70 | 0.01 | 85 | 1013.7 |
| 20260503200338 | 74 | 74 | 6.0 | 12.0 | 0.00 | 0.70 | 0.01 | 85 | 1013.8 |
| 20260503195351 | 74 | 96 | 2.0 | 10.0 | 0.00 | 0.70 | 0.01 | 85 | 1013.8 |
| 20260503194359 | 74 | 15 | 4.0 | 9.0 | 0.00 | 0.70 | 0.01 | 87 | 1013.8 |
| 20260503193348 | 73 | 342 | 3.0 | 10.0 | 0.00 | 0.70 | 0.01 | 87 | 1014.1 |
| 20260503192331 | 73 | 38 | 6.0 | 12.0 | 0.00 | 0.70 | 0.01 | 86 | 1014.2 |